Wind_Speed
4 2 1 3 5 6 7 5 5 6 6 7 9 10 10 10 10 8 6 5 6 9 11 11 11 11 10 9 8 10 9 8 7 7 10 12 13 14 14 15 16 15 16 15 14 13 13 11 8 7 5 4 4 4 4 2 2 2 2 2 3 3 3 4 4 5 5 6 6 6 6 6 6 6 6 5 5 4 3 2 1 1 1 1 1 2
3 1 2 4 5 7 8 8 5 5 5 6 8 9 11 12 12 8 6 5 4 7 9 7 8 10 10 9 8 8 9 8 7 8 10 13 16 16 16 16 16 15 15 15 15 14 14 13 10 8 7 5 5 5 5 4 4 3 2 2 2 2 2 3 3 3 4 4 4 5 5 5 5 5 6 6 6 6 5 4 3 2 1 1 2 2
2 2 4 3 5 7 8 9 8 4 4 6 7 8 10 10 10 8 6 4 4 6 7 5 7 10 8 8 8 7 8 9 8 10 12 14 17 17 16 16 15 15 15 14 16 15 15 14 12 10 8 7 7 7 7 6 5 4 4 3 2 2 1 0 0 1 2 2 2 3 4 4 4 5 6 6 6 6 6 5 4 4 3 2 2 3
2 2 4 4 6 6 7 8 7 4 3 5 6 8 9 5 7 9 6 5 4 6 7 5 8 10 8 7 6 5 7 8 8 10 13 15 16 17 16 16 16 16 15 15 16 16 16 16 14 12 10 9 9 8 7 7 6 6 6 5 4 4 3 3 3 3 2 2 2 2 3 3 4 5 6 6 7 7 6 6 5 4 3 3 3 3
2 4 4 5 6 5 5 6 7 7 5 3 3 6 6 2 5 8 4 4 6 7 7 7 11 13 9 6 5 3 3 4 5 7 11 14 15 17 18 18 17 17 17 16 17 17 17 18 16 14 13 12 11 10 9 9 9 8 8 8 7 6 5 5 6 6 5 4 4 4 4 4 4 4 5 6 7 7 8 7 6 5 4 3 4 4
3 5 5 5 5 5 5 6 7 8 8 5 2 4 5 4 5 7 6 7 11 11 7 6 11 12 11 8 5 2 2 3 4 4 7 11 13 17 19 19 19 19 19 18 18 19 18 19 19 17 15 14 13 12 12 11 12 11 11 10 9 8 8 8 8 8 8 7 6 6 5 5 4 4 5 5 7 7 8 8 8 7 6 4 4 4
4 6 6 5 6 7 7 7 7 8 10 8 4 5 7 6 6 7 8 9 13 12 7 6 10 9 10 8 4 3 2 3 2 5 6 7 11 15 17 18 19 19 20 20 20 20 20 21 21 19 17 16 15 15 14 14 14 14 13 12 11 11 11 11 11 10 10 9 9 8 8 7 6 5 5 6 6 7 8 8 8 7 7 6 5 5
3 5 5 6 7 7 7 7 7 7 9 9 5 9 10 7 7 8 9 11 12 10 7 9 11 12 12 8 3 3 4 4 2 7 7 8 10 12 15 17 18 19 20 20 21 21 22 21 21 22 20 19 18 17 17 16 16 16 15 15 14 13 13 13 13 13 13 12 11 10 10 9 8 7 6 6 7 7 8 8 8 8 8 8 8 7
3 4 4 6 7 6 6 7 7 5 7 9 8 10 10 9 10 9 10 13 11 10 11 11 10 12 11 6 4 3 3 3 2 5 6 7 9 10 12 14 17 18 19 20 22 22 23 23 23 23 23 22 21 20 20 19 19 18 18 18 17 16 16 15 15 15 15 14 13 12 12 11 10 9 8 7 8 8 8 8 8 9 9 9 9 9
5 5 4 5 7 7 7 8 10 8 9 12 11 11 11 11 12 10 11 12 10 11 11 8 7 9 5 4 4 0 2 4 3 1 3 3 5 7 8 9 12 15 17 20 22 22 23 25 25 25 25 25 23 22 22 21 21 21 20 20 20 19 18 18 18 18 17 16 15 14 14 13 12 11 10 9 9 9 9 9 9 9 9 10 10 10
6 6 5 6 7 9 10 10 13 14 13 15 15 13 12 13 14 13 12 11 10 9 6 3 4 9 5 5 8 5 4 6 7 4 3 1 3 4 4 5 6 8 11 16 20 22 23 23 25 28 28 28 26 25 25 23 23 23 23 22 22 22 22 20 20 19 19 18 17 16 16 15 14 13 12 11 10 10 10 10 10 10 10 10 11 11
4 5 6 9 11 11 11 11 12 13 13 12 12 12 12 13 13 13 10 10 11 6 4 3 2 8 5 4 8 7 7 8 9 7 5 3 3 3 4 5 4 5 6 8 14 18 21 22 24 29 31 31 30 28 27 26 26 26 25 24 24 24 24 23 22 21 21 20 19 18 18 18 17 15 14 13 12 12 11 11 12 12 12 12 12 12
2 3 6 10 13 13 12 11 10 8 9 9 7 7 8 6 5 6 5 6 8 3 5 4 1 4 3 6 6 7 8 8 9 9 8 7 6 6 6 6 6 7 7 6 8 11 15 19 23 28 32 34 34 31 30 29 28 28 27 26 26 26 26 25 25 24 23 22 21 20 19 19 19 18 17 15 14 14 13 13 13 13 14 14 15 15
5 2 5 10 12 13 14 13 11 9 9 8 6 3 4 3 2 3 3 4 4 2 3 2 1 3 6 6 5 7 8 8 9 8 8 9 9 9 9 9 9 10 10 10 8 7 7 12 19 25 29 33 35 35 33 31 31 31 30 29 28 28 27 27 27 26 25 24 23 22 21 21 21 20 19 17 16 16 15 15 14 15 15 16 16 17
6 3 8 13 11 12 13 11 10 10 9 6 4 4 4 3 3 3 2 2 1 2 4 5 4 4 7 6 4 5 5 6 8 7 6 7 9 10 10 11 12 12 12 12 10 8 7 7 13 19 25 30 34 36 36 35 33 32 32 32 31 31 30 30 30 29 27 25 25 24 23 22 22 22 21 20 19 18 17 16 16 16 17 17 18 19
6 4 9 14 12 11 9 9 9 8 6 4 3 5 4 1 2 5 5 5 5 1 3 5 4 4 6 5 2 1 2 3 4 6 7 6 7 8 9 11 12 12 13 13 12 12 11 9 9 12 18 24 30 34 38 38 36 34 34 34 34 33 33 32 32 31 29 27 26 25 24 23 23 23 23 22 21 19 19 18 18 18 18 18 19 20
7 5 7 10 11 9 7 8 10 8 5 5 4 4 5 3 2 6 5 2 4 4 2 4 5 5 5 4 5 7 7 7 7 9 10 9 9 9 10 11 11 12 12 13 14 14 14 14 13 11 12 16 22 28 34 38 39 37 36 36 36 35 35 35 34 33 32 30 28 26 25 25 25 25 25 24 23 21 20 20 20 19 19 19 20 21
8 5 5 8 8 8 8 6 8 8 6 5 4 4 5 3 2 4 4 2 3 3 2 2 3 4 2 2 4 7 10 10 11 14 14 12 11 12 12 12 13 13 13 14 14 14 14 15 16 15 13 12 14 18 23 31 37 40 40 38 36 37 38 37 36 34 33 31 30 28 27 27 26 27 27 26 25 24 22 22 21 21 21 20 21 22
8 4 3 7 6 6 8 5 6 8 7 6 6 6 6 3 0 1 3 3 3 2 1 3 3 6 4 5 9 10 11 11 10 11 13 13 13 13 13 14 14 15 15 15 16 16 16 15 16 16 16 14 13 14 16 21 28 37 44 43 38 37 38 37 36 36 33 32 32 31 29 28 28 27 28 27 26 26 25 24 23 22 22 22 22 23
6 2 2 7 5 5 7 7 8 9 9 8 7 6 6 4 3 4 3 4 4 3 1 1 3 4 4 5 9 12 14 15 14 13 13 13 14 15 15 17 17 17 18 18 18 19 19 18 16 16 17 17 15 14 14 17 21 27 38 45 43 39 38 37 37 36 34 34 35 34 31 30 29 29 28 28 28 27 26 25 25 24 23 23 23 24
3 2 4 6 6 5 6 8 10 9 10 10 7 7 8 5 4 3 1 2 5 4 3 2 1 5 4 5 8 11 14 14 14 17 18 16 16 16 17 18 18 19 19 20 20 21 22 21 19 17 17 18 18 16 14 14 18 22 30 40 44 45 42 39 39 38 35 34 35 35 35 33 31 30 29 29 29 28 28 27 26 26 25 24 25 25
2 2 3 4 5 4 2 5 8 8 8 9 8 7 7 6 5 4 0 1 4 3 3 4 1 6 4 6 8 10 11 12 14 17 18 16 15 15 15 15 16 16 17 18 18 19 21 22 22 21 20 20 20 20 19 16 16 20 27 34 40 46 42 35 36 38 37 37 36 36 38 36 33 32 31 30 30 29 29 29 28 28 26 26 26 26
3 2 2 2 4 2 0 2 6 8 8 7 7 7 6 6 5 5 3 3 3 2 1 4 1 4 3 6 8 9 10 11 14 15 15 14 13 12 13 13 13 13 14 15 16 17 19 20 21 22 22 22 22 23 23 22 20 20 25 31 36 40 39 32 33 36 36 36 36 37 40 39 36 34 33 32 32 31 31 30 30 29 28 27 27 28
3 3 3 1 0 2 2 3 4 8 10 6 6 7 6 5 4 4 4 3 3 2 2 4 0 3 4 7 8 9 10 11 13 13 13 12 11 12 13 12 12 13 13 14 15 16 17 19 20 21 22 23 23 24 23 23 23 22 25 28 30 30 31 31 35 38 35 30 30 32 39 43 40 36 35 34 32 32 32 32 32 31 29 29 29 29
3 4 5 3 2 4 3 2 0 6 9 6 5 6 5 4 3 3 3 1 1 2 4 5 2 3 5 7 8 9 10 11 12 12 12 11 11 12 12 12 12 12 12 13 15 16 17 18 19 21 22 23 24 25 24 22 22 22 24 26 26 25 25 29 34 36 32 28 27 26 29 39 43 38 36 36 34 34 34 33 33 33 32 31 30 30
3 4 6 6 5 3 2 2 2 4 6 5 5 5 5 4 2 3 3 2 0 1 3 4 3 4 6 7 9 10 10 10 11 11 11 10 10 11 11 11 11 10 11 12 13 15 15 16 17 19 21 22 23 24 24 23 22 21 21 22 23 23 22 24 27 26 22 20 20 17 16 23 36 39 38 38 37 37 37 35 35 36 35 33 33 33
3 3 5 5 5 5 5 4 4 4 4 3 3 4 5 4 3 4 5 3 2 2 2 2 3 6 7 8 10 10 10 11 11 11 11 10 11 11 11 11 11 10 11 11 12 13 13 14 15 16 17 19 21 21 21 21 21 21 21 21 22 22 20 18 18 18 15 14 15 13 11 13 23 31 37 39 39 40 40 38 38 38 37 36 36 36
2 4 5 4 4 3 2 2 3 2 1 1 1 2 4 4 4 4 4 4 3 2 1 1 4 6 7 8 10 10 11 11 11 10 11 11 11 11 11 11 11 11 11 11 11 11 12 12 13 14 14 14 17 19 20 19 19 18 19 21 21 21 19 17 15 14 13 13 14 15 15 13 15 21 28 33 37 40 41 41 40 40 39 38 38 38
0 4 5 3 3 3 2 1 1 0 1 1 0 1 2 3 4 4 4 4 4 4 3 3 4 5 6 8 9 10 10 11 10 10 10 11 11 11 11 11 12 12 12 11 10 11 11 12 12 13 14 15 15 16 18 19 20 18 17 17 16 15 14 14 14 13 13 14 15 16 16 16 16 18 22 26 30 34 37 37 38 39 40 39 39 39
2 3 7 4 3 4 3 2 1 0 0 0 0 1 1 2 2 2 3 3 3 3 3 3 3 4 5 7 8 9 9 10 10 10 10 11 11 11 11 11 11 12 12 12 12 11 11 11 11 12 13 14 15 15 15 16 17 18 19 18 17 15 13 12 13 14 14 14 14 14 16 16 17 19 21 23 26 29 31 32 34 37 37 38 39 40
3 5 8 5 2 3 2 1 2 1 1 1 1 1 1 1 2 3 3 3 2 2 3 4 2 3 6 8 8 9 9 9 10 10 10 11 11 11 11 11 11 11 12 12 12 12 11 11 10 10 11 12 13 14 15 15 14 14 15 17 19 19 18 17 17 15 14 14 14 14 17 18 19 21 22 23 25 27 29 30 32 34 35 37 38 36
4 5 6 4 4 4 2 2 3 3 2 4 4 3 1 1 2 3 3 3 2 2 3 4 3 4 7 9 9 9 9 9 10 11 10 10 10 11 11 12 12 12 13 13 12 12 11 11 11 11 11 11 11 12 13 14 14 13 13 14 16 18 19 20 20 18 16 17 16 16 18 20 20 21 22 22 23 25 27 27 28 30 32 34 33 31
4 3 3 4 5 4 3 4 4 5 6 7 6 5 2 3 3 3 4 4 3 2 2 3 4 7 9 10 10 10 10 10 10 12 12 11 11 11 12 13 13 14 16 16 15 13 12 12 12 12 12 12 11 12 12 12 13 13 13 13 13 15 16 17 19 19 19 19 18 17 18 19 19 19 20 22 23 25 26 25 24 27 28 28 27 25
4 2 2 4 4 3 3 4 5 7 6 4 6 7 5 4 3 3 5 6 4 4 4 5 6 8 9 9 10 10 10 10 11 12 13 12 12 13 13 14 15 17 18 17 16 15 14 13 12 12 12 12 12 12 12 12 12 13 14 14 13 13 14 14 16 17 17 18 18 17 17 18 18 18 20 22 23 25 26 25 24 25 25 24 23 22
4 2 2 3 3 3 2 4 4 5 4 4 8 10 9 7 5 4 6 7 5 5 6 6 6 8 8 9 9 10 10 11 11 10 10 11 12 14 15 16 17 18 17 17 16 15 15 14 14 13 12 12 12 12 12 12 12 12 13 14 14 13 13 13 14 14 15 15 16 16 17 18 18 18 19 22 24 25 24 25 25 24 23 23 22 21
3 3 2 2 3 3 4 6 4 3 5 8 10 8 8 8 6 6 7 7 7 7 6 6 7 8 8 9 9 9 10 10 9 7 8 11 12 13 14 14 15 15 15 15 15 15 15 15 15 15 14 13 13 12 12 12 12 12 12 13 14 14 14 14 14 14 14 14 15 16 16 17 17 17 18 20 21 22 23 24 24 23 24 24 21 21
4 3 3 4 4 4 5 7 8 8 8 8 7 6 6 5 6 7 7 7 9 7 4 5 7 7 8 9 9 9 8 7 6 6 8 10 11 11 12 13 13 14 14 15 15 15 16 16 16 16 15 15 14 14 13 13 13 13 13 13 13 14 15 16 16 15 15 15 15 15 15 16 16 16 16 16 16 17 20 22 22 23 25 24 22 22
5 3 4 5 6 6 7 8 8 7 5 4 4 4 5 6 7 8 8 7 10 7 4 5 7 7 7 8 8 8 7 6 5 7 9 11 12 12 13 14 14 14 15 15 15 15 16 16 16 16 16 15 15 14 14 14 14 14 14 14 14 14 15 15 16 16 17 17 17 16 16 16 16 16 16 15 14 14 16 18 21 24 25 24 24 24
7 5 5 6 6 6 7 7 7 5 4 5 5 5 7 7 6 9 8 8 10 8 5 5 7 7 7 8 9 8 7 7 8 9 11 13 14 15 16 16 16 16 17 17 17 16 17 17 17 17 17 16 16 16 15 14 14 15 15 15 16 16 16 16 15 16 16 17 18 18 18 18 18 17 17 16 15 16 18 21 24 25 26 27 28 28
5 5 5 6 6 7 7 8 8 6 7 11 11 10 9 7 6 7 6 5 7 8 7 7 8 8 8 9 10 9 7 9 11 12 13 14 15 16 17 18 18 19 19 19 19 18 18 17 18 17 17 17 18 18 17 16 15 15 16 16 17 18 18 17 17 17 17 17 18 18 19 19 19 20 20 19 18 19 19 21 24 25 28 31 31 30
5 6 7 7 7 8 9 9 9 8 11 15 14 12 10 8 7 6 5 5 9 11 10 9 10 10 10 10 11 10 10 11 13 14 15 16 16 17 17 18 19 19 20 20 20 19 18 18 18 18 18 18 18 18 18 18 17 17 17 17 18 19 20 19 19 18 18 18 18 19 19 20 21 22 22 22 22 22 21 20 20 21 24 31 35 33
5 6 7 7 7 8 8 9 9 9 12 13 12 11 10 6 6 7 9 11 13 13 11 11 12 11 11 11 12 12 12 13 15 16 17 18 18 18 18 19 19 19 19 20 20 20 20 19 18 18 18 19 18 18 18 18 18 18 18 18 19 20 20 20 21 21 20 20 20 20 20 21 22 23 23 24 24 24 24 22 21 20 21 27 33 32
6 6 6 6 6 7 7 8 7 7 8 9 8 8 8 6 6 10 12 12 12 12 11 12 12 12 13 13 13 14 15 15 16 17 18 19 19 19 20 20 21 21 21 21 20 20 20 20 19 19 19 20 20 20 19 19 19 18 18 18 19 20 20 21 21 22 22 22 22 21 21 21 22 23 24 25 24 24 24 24 23 23 21 23 27 27
6 6 5 6 8 7 5 4 4 7 12 13 10 8 9 9 11 13 13 11 9 10 11 12 12 13 14 14 14 16 16 17 18 18 19 19 19 20 20 21 22 22 22 22 21 21 21 21 21 21 20 21 22 22 21 21 21 20 20 19 20 20 21 21 21 21 22 22 23 23 23 23 22 22 23 24 25 25 25 25 25 25 24 24 25 26
6 7 7 8 11 11 8 8 10 14 18 19 16 13 12 12 13 14 13 12 11 11 11 12 12 13 14 15 16 17 17 18 18 18 19 19 19 20 20 21 21 22 23 23 22 22 22 22 22 22 22 22 23 23 23 23 23 23 22 21 21 21 21 21 22 22 22 22 23 23 24 24 24 23 22 23 24 25 26 26 27 27 26 26 28 30
9 10 10 10 12 14 12 11 13 14 15 17 16 14 14 14 14 13 13 13 13 12 12 12 12 13 14 15 17 17 17 17 17 17 18 19 20 20 21 21 22 22 22 22 23 24 24 24 24 24 25 25 25 25 25 25 25 25 25 23 22 22 22 22 21 21 22 23 23 23 24 24 25 25 24 24 25 25 26 27 29 28 27 27 29 31
11 10 11 11 11 12 12 11 12 13 12 14 15 14 14 14 14 13 13 13 13 14 13 14 15 16 16 16 16 16 16 16 17 18 18 19 20 21 22 23 24 24 22 22 24 25 26 27 26 26 27 28 28 28 27 27 26 26 26 25 24 22 22 22 21 21 21 22 22 23 24 24 24 24 25 26 26 27 28 28 29 30 30 30 30 31
11 10 11 12 11 12 11 10 14 16 14 14 15 13 12 11 11 12 13 13 14 15 16 17 18 18 17 17 17 16 16 16 17 19 20 20 21 22 23 24 26 26 26 26 26 26 26 27 27 28 29 29 29 29 29 29 28 28 26 26 24 23 22 23 23 22 22 22 22 23 23 24 24 24 24 25 26 28 28 28 29 31 31 31 31 32
11 11 12 11 11 12 10 9 13 15 13 12 12 11 9 10 12 12 13 14 15 16 16 17 18 17 16 16 17 17 17 17 19 20 22 22 23 24 25 26 27 26 26 26 26 25 25 25 26 29 30 30 30 31 30 29 29 28 27 25 24 23 23 24 24 24 23 23 23 23 23 23 24 23 24 25 26 27 28 28 29 30 31 31 31 31
12 11 12 12 11 10 8 9 13 13 9 8 8 9 9 10 12 12 13 14 15 16 16 16 16 16 15 16 17 18 18 19 20 22 23 24 25 26 27 28 28 27 27 27 27 27 27 27 27 28 29 31 31 31 30 30 29 28 27 25 23 23 24 25 25 24 23 22 22 22 22 23 23 23 24 25 27 28 29 29 28 29 31 32 31 31
12 11 11 12 11 9 8 11 15 14 11 10 10 11 11 12 13 13 13 14 14 15 16 16 16 16 16 16 17 18 20 22 23 24 25 26 27 28 29 30 31 32 33 33 32 31 30 30 30 30 31 33 32 29 28 30 29 27 27 26 24 23 24 25 25 25 24 22 22 21 22 22 23 23 24 25 27 28 29 30 29 29 31 32 31 31
Wind_Direction
111 140 52 29 9 4 351 326 280 278 269 242 235 232 232 237 240 235 244 263 261 253 247 243 247 249 247 242 242 250 250 246 249 247 236 226 224 226 223 227 233 236 240 241 240 235 234 236 241 247 245 237 245 259 260 242 225 206 163 142 123 107 90 81 71 68 58 47 42 31 24 16 8 360 347 341 328 321 323 332 4 31 28 29 16 38
112 93 31 28 8 8 5 359 336 285 261 231 226 230 230 231 235 237 249 263 248 244 242 229 240 245 240 242 248 256 257 250 248 255 247 232 230 232 229 229 231 232 236 237 235 234 235 237 239 245 243 229 231 247 252 244 233 224 192 167 139 124 110 94 76 66 61 47 37 27 20 11 2 355 347 338 327 319 310 303 303 298 306 280 255 245
180 44 24 16 5 5 357 356 355 321 247 233 228 229 233 226 230 237 232 227 200 218 233 225 239 244 237 244 252 252 251 249 248 253 253 243 236 234 234 236 235 234 236 236 235 234 235 237 238 243 241 228 228 237 247 248 239 235 223 203 187 180 179 169 7 24 44 43 32 15 6 1 355 350 345 342 335 326 314 299 291 282 278 282 283 275
241 10 359 344 359 3 345 347 355 334 252 242 244 237 237 226 233 231 193 178 191 216 240 248 244 243 237 237 238 229 233 245 254 254 256 251 238 230 231 235 236 236 237 237 237 236 234 236 237 240 240 233 230 231 239 247 244 239 235 227 220 219 234 257 269 285 297 311 324 331 339 344 347 348 346 343 339 333 324 312 297 284 273 271 276 282
340 327 324 342 353 345 320 335 338 311 282 252 264 267 270 289 260 247 213 204 224 228 240 252 247 238 227 214 201 203 234 253 261 253 254 250 231 219 221 225 228 231 234 236 237 237 235 236 238 238 240 237 233 231 231 240 244 239 238 238 235 234 239 250 262 274 283 289 292 294 303 315 329 340 343 342 340 338 332 326 317 307 296 285 279 278
320 308 318 343 337 324 318 328 324 303 290 274 263 284 292 309 284 267 263 250 246 238 218 238 255 233 209 211 209 212 291 302 278 256 252 248 230 221 221 221 221 226 230 234 237 238 235 235 238 237 238 239 236 234 230 235 241 240 241 244 242 241 242 246 255 265 275 281 284 286 287 293 305 320 334 340 340 339 335 332 326 319 314 310 303 294
312 326 337 335 316 314 316 317 317 309 292 277 250 256 273 293 292 273 265 258 257 252 213 222 263 242 208 214 223 203 109 40 299 256 247 241 234 231 229 224 223 227 230 232 235 238 236 234 236 238 238 239 239 238 235 234 238 241 244 246 248 247 245 247 250 255 265 273 278 281 282 285 293 306 321 331 335 336 334 332 328 323 320 319 317 315
339 342 340 341 330 316 320 320 308 302 297 294 267 256 269 284 284 276 265 260 264 267 249 239 256 261 241 218 187 170 105 63 248 243 246 242 238 237 235 232 230 231 232 233 235 238 239 235 235 238 239 240 240 240 240 238 239 242 244 245 247 249 248 249 250 251 256 264 271 275 278 281 286 294 306 317 323 326 329 330 328 326 324 323 323 323
310 318 323 347 352 338 348 338 307 299 303 300 280 267 272 271 266 266 263 263 265 265 262 249 240 256 251 201 154 162 107 66 202 229 245 245 246 245 244 243 241 239 236 234 234 236 240 239 235 236 238 240 241 241 242 242 242 244 246 247 247 247 247 248 250 251 253 257 263 268 272 276 280 284 290 301 310 316 320 322 323 324 325 324 323 324
292 293 308 344 2 349 344 327 306 307 298 289 290 287 277 265 260 256 254 256 256 256 264 259 236 249 244 104 71 169 107 52 51 312 266 251 256 257 258 259 254 251 246 239 235 232 235 239 236 235 237 239 241 242 243 244 245 246 248 250 250 249 248 247 248 251 252 253 257 262 267 271 273 277 281 287 296 305 312 314 316 318 320 320 321 322
326 311 311 326 353 347 332 322 310 307 299 287 289 290 279 269 263 253 245 240 242 244 247 247 248 255 251 69 46 37 47 25 21 359 320 291 264 262 269 274 268 263 255 247 242 234 231 234 236 235 235 237 241 243 243 244 246 246 247 250 252 253 252 250 248 249 251 251 253 258 263 267 270 272 275 279 286 294 302 307 311 314 316 317 319 321
3 2 349 334 342 342 332 323 310 309 315 305 291 283 278 277 273 265 251 235 234 214 137 106 258 250 246 61 49 46 42 20 12 359 341 327 293 283 286 292 300 296 278 259 251 242 234 230 233 235 234 235 238 241 243 243 244 246 247 248 251 254 255 254 251 249 250 250 251 254 258 264 268 270 271 274 279 286 292 299 304 308 312 316 319 321
320 0 6 348 339 340 344 338 319 318 331 327 312 281 268 269 268 273 267 242 242 210 116 76 354 225 159 81 53 40 38 24 17 9 1 358 334 311 305 301 305 310 307 294 274 256 240 231 231 234 234 235 236 238 241 242 244 246 247 248 250 252 255 256 254 251 250 249 248 250 254 260 265 268 270 271 274 279 284 290 297 302 306 312 316 319
325 309 355 352 339 337 348 347 334 330 332 335 347 318 277 277 253 243 239 240 251 219 149 135 163 181 145 107 59 40 34 23 23 13 5 4 344 324 319 312 307 309 310 309 306 294 265 239 234 233 232 233 234 235 238 241 243 245 247 248 250 251 253 254 254 252 249 248 247 247 250 255 261 265 268 269 271 275 279 285 290 296 301 305 310 314
335 316 335 337 336 341 348 351 345 334 323 326 337 316 295 298 304 288 273 292 321 111 146 172 183 185 168 142 77 48 27 13 14 356 339 346 336 323 319 314 307 304 303 305 306 306 305 275 251 243 237 234 235 234 235 238 241 244 246 248 249 250 251 252 252 250 247 246 245 245 246 251 257 262 265 267 268 271 275 280 285 290 296 301 305 309
330 334 338 334 339 349 357 5 3 351 332 331 317 303 306 338 327 303 300 329 338 349 150 161 157 154 169 174 173 220 324 335 340 325 304 296 303 303 302 300 301 303 301 300 300 299 302 298 281 264 251 244 241 238 236 236 238 241 244 247 249 249 249 249 250 248 244 243 243 244 244 248 253 258 262 264 266 268 271 275 280 286 291 296 300 304
338 339 339 343 346 345 6 25 15 10 357 339 331 329 333 339 303 287 282 307 294 273 160 155 156 146 173 214 237 249 276 275 266 287 296 291 290 289 289 286 287 296 301 300 300 298 299 299 296 290 274 259 252 246 242 240 239 239 240 243 246 248 247 246 246 245 242 240 240 242 243 245 249 253 257 260 262 264 267 271 275 280 286 291 295 300
329 317 321 348 355 349 2 19 9 10 14 0 355 353 334 298 226 274 286 279 257 253 117 177 163 115 154 294 312 287 288 284 269 275 283 285 284 284 289 288 283 286 290 294 296 294 294 296 297 298 293 281 268 260 254 248 243 240 240 242 243 244 246 245 246 247 243 238 237 239 240 242 245 249 253 256 259 262 264 267 271 276 280 285 291 295
326 315 328 351 358 9 8 359 0 10 26 41 36 20 0 340 343 312 297 306 298 301 87 167 133 76 42 1 0 342 327 324 309 292 284 281 281 282 289 292 292 290 286 287 289 287 286 290 295 297 295 291 285 276 269 260 250 242 241 243 242 242 245 247 247 248 245 240 238 237 237 239 241 245 250 253 257 260 262 263 266 271 275 279 285 289
342 329 11 9 10 32 23 13 21 20 19 31 33 23 15 349 339 349 319 316 313 307 1 166 146 82 45 16 6 354 345 342 341 335 319 305 300 297 297 298 299 299 293 289 289 288 285 285 290 294 293 293 292 286 278 270 263 250 242 242 242 242 246 248 247 248 246 239 236 237 237 237 239 242 246 251 254 256 259 261 264 267 272 276 280 285
22 341 2 19 19 32 27 20 28 25 17 22 18 8 8 355 340 339 323 323 316 316 343 317 122 95 64 18 4 354 349 348 347 343 337 329 320 311 308 308 307 306 301 294 292 291 288 284 285 289 292 293 293 294 293 278 266 257 246 240 239 239 242 245 246 248 247 239 233 235 237 236 237 240 243 247 251 254 257 260 262 264 268 272 276 281
83 17 349 12 20 34 56 31 28 22 17 19 15 8 359 352 336 306 300 54 327 328 337 312 29 96 70 4 0 353 352 354 349 344 341 339 334 323 320 320 316 313 310 303 298 295 293 290 286 287 290 292 292 294 299 294 277 264 252 241 236 235 236 241 243 245 247 244 236 234 237 237 236 238 241 245 247 251 255 257 260 262 265 270 274 278
110 33 342 11 20 18 204 12 10 13 22 19 10 11 354 346 341 320 344 15 326 318 285 288 340 86 35 350 351 351 356 353 346 343 341 341 340 333 330 329 324 321 320 316 310 303 299 297 294 292 292 292 291 291 294 294 291 284 269 250 239 236 234 236 241 244 246 243 235 231 234 235 236 236 239 243 245 248 251 254 257 260 262 266 271 275
79 6 324 279 186 217 257 325 350 16 26 16 354 360 355 345 339 330 342 334 320 355 321 294 33 90 6 346 348 353 354 347 342 342 342 342 339 334 333 332 329 326 323 321 318 311 304 299 296 297 297 296 295 295 297 294 289 292 285 262 242 237 235 234 238 241 241 241 241 241 237 232 232 234 237 240 244 246 249 252 255 258 260 262 266 270
48 357 328 310 238 197 213 250 2 28 20 4 349 356 358 351 338 350 6 303 273 11 335 328 41 62 358 348 353 354 348 344 344 347 348 346 340 337 336 333 330 328 325 320 317 314 309 302 293 290 293 296 299 300 302 300 290 288 289 271 248 238 237 236 239 243 246 250 256 265 256 236 229 231 236 240 244 247 249 251 253 256 257 259 262 266
33 353 347 347 344 351 0 331 344 5 351 342 353 358 360 5 346 322 318 285 229 41 359 359 25 17 354 352 356 352 348 348 352 357 358 354 348 348 346 342 338 334 331 326 320 315 315 311 302 292 286 286 293 298 299 301 296 287 285 277 260 250 247 245 245 248 253 254 255 273 282 248 232 233 239 242 245 248 249 250 252 254 256 257 259 262
25 358 359 8 354 352 359 332 314 338 337 327 346 0 4 5 356 324 313 330 20 62 93 50 337 338 348 354 355 351 353 358 358 358 1 359 359 0 358 354 349 342 336 331 325 320 318 320 317 309 296 283 281 287 291 295 296 287 278 273 264 258 258 256 248 242 243 252 258 267 277 257 239 238 242 245 247 250 251 251 252 253 255 257 258 260
11 320 331 2 354 340 338 303 300 328 321 266 320 3 3 358 5 0 349 3 357 332 83 49 333 337 347 351 350 348 354 0 354 352 355 354 355 356 356 354 351 350 347 338 330 327 325 324 324 322 317 303 286 280 281 283 288 286 279 275 269 261 256 255 251 246 247 259 268 269 264 255 244 241 243 245 247 251 253 254 254 254 255 256 257 257
92 295 313 340 332 322 318 288 287 307 205 168 126 5 9 8 16 10 353 356 348 338 2 16 352 347 343 344 346 346 352 355 346 344 346 344 344 345 347 350 348 350 353 350 345 342 338 334 331 326 324 323 313 297 286 279 276 275 274 275 277 270 259 254 254 257 260 260 264 266 262 257 252 246 241 241 244 248 251 252 253 254 256 255 255 255
65 289 302 319 320 319 313 260 218 150 230 177 241 282 1 7 4 357 339 340 352 358 1 354 349 351 343 343 344 343 347 347 339 336 334 333 335 336 338 342 344 345 348 351 350 348 345 340 335 331 325 324 326 321 312 301 289 281 274 268 265 266 266 261 257 255 253 252 253 257 260 262 263 255 248 248 249 248 249 251 251 252 254 254 254 255
7 292 298 312 293 301 314 241 210 173 160 192 237 278 319 315 328 328 316 318 324 324 333 331 334 348 339 339 342 339 336 333 326 323 323 323 325 329 332 336 341 344 343 343 344 342 342 338 330 327 325 324 325 325 325 324 318 306 295 283 273 270 268 263 260 256 250 247 246 250 257 263 265 262 258 257 253 249 250 251 250 251 251 251 254 257
341 301 304 298 261 279 297 245 229 210 244 269 254 251 275 283 308 306 284 281 266 257 311 329 328 333 331 332 337 334 327 324 320 318 320 320 319 324 330 331 334 340 341 338 336 334 332 330 327 325 324 323 322 322 323 324 324 321 315 305 293 284 277 269 263 257 252 253 254 254 258 261 261 261 262 261 257 253 252 251 251 251 250 251 255 256
332 309 305 280 264 272 253 233 235 248 271 266 228 215 251 282 291 300 284 281 272 242 276 318 319 326 329 331 335 333 329 327 321 321 327 327 324 326 329 329 329 332 332 332 331 330 327 325 324 323 321 319 318 318 320 320 320 317 314 312 306 297 289 280 270 260 254 256 259 259 260 261 259 259 260 261 261 259 254 251 249 248 249 251 250 245
337 331 291 274 273 276 246 219 236 257 271 259 226 234 257 268 275 295 283 273 265 253 265 287 309 323 328 330 332 331 331 331 325 326 331 329 325 327 326 325 324 321 320 321 322 323 324 322 319 318 316 316 314 313 314 314 313 311 309 308 307 303 298 291 281 270 260 256 257 257 258 260 260 259 260 262 263 263 257 250 246 246 245 240 231 229
336 334 278 273 286 286 233 207 231 252 249 253 262 262 260 259 263 283 288 280 263 255 266 283 306 321 326 327 327 327 330 333 330 329 332 327 323 323 320 318 317 316 315 316 316 316 318 318 317 315 314 313 311 309 309 311 310 309 306 303 300 299 298 295 290 282 272 263 260 259 260 261 261 259 259 260 264 264 256 247 245 242 233 222 219 227
313 316 293 274 274 272 233 219 239 288 278 275 285 279 263 267 282 299 304 292 269 258 262 279 299 316 321 322 323 325 329 334 332 329 330 326 320 320 322 321 320 321 321 320 320 318 318 317 316 316 316 316 315 313 309 306 304 303 304 303 301 297 292 290 289 286 281 274 270 269 268 268 267 264 262 262 262 258 249 245 244 232 219 215 218 230
307 300 290 281 272 271 267 257 264 284 281 270 275 272 258 263 277 292 304 287 268 263 266 284 302 316 318 320 323 322 325 333 327 318 324 328 325 326 331 332 330 331 329 328 327 325 323 322 319 317 317 316 313 311 308 305 302 300 299 300 300 297 292 289 287 286 285 282 280 279 278 275 273 270 268 268 264 252 243 241 234 220 215 218 221 230
309 279 264 277 277 276 284 281 276 284 278 234 228 254 259 257 274 297 306 278 264 271 277 286 306 315 314 320 326 323 328 332 312 308 320 327 329 330 332 333 333 333 332 331 331 329 327 327 324 320 319 316 312 308 306 305 304 301 298 295 293 292 291 290 289 288 287 286 285 284 282 281 280 279 275 271 265 250 237 230 222 216 220 224 225 232
313 298 275 275 273 270 278 282 280 286 275 249 262 282 272 266 295 315 304 257 251 270 288 294 309 315 312 323 329 328 332 326 311 314 323 324 326 329 329 329 329 329 329 329 330 330 330 330 328 325 322 318 314 311 307 304 303 299 296 293 290 288 287 288 288 287 286 286 286 285 283 281 280 281 279 275 268 256 240 228 221 219 224 229 230 233
309 294 280 272 264 263 271 278 282 283 273 271 281 288 278 278 304 312 295 240 242 272 295 304 312 314 314 325 329 324 321 316 313 319 322 320 323 327 327 326 326 325 325 325 325 327 327 327 327 327 325 321 317 314 311 307 303 299 296 294 291 288 286 285 283 282 281 281 281 281 281 280 277 275 274 271 270 265 252 240 234 231 232 236 236 235
276 271 272 269 268 273 275 278 283 282 278 280 284 281 276 284 297 288 265 249 265 284 302 311 312 312 313 320 322 315 311 312 314 317 319 320 322 324 324 325 325 323 323 322 322 322 321 322 323 323 322 321 319 317 315 312 308 303 298 296 293 290 288 285 283 282 280 279 278 277 276 276 276 275 273 271 270 269 266 263 259 254 247 241 237 235
277 273 275 267 265 271 271 276 284 282 278 283 284 276 270 277 288 275 260 264 276 288 300 306 307 307 307 310 312 309 308 310 311 314 317 319 320 321 321 322 322 321 320 319 319 319 318 317 318 318 317 317 316 316 316 314 313 308 303 299 294 291 289 287 284 283 280 278 276 275 274 273 272 273 273 273 272 271 271 269 266 266 260 246 238 236
274 270 276 268 264 266 266 277 286 275 274 290 296 286 275 262 266 275 275 279 287 290 292 298 301 302 304 306 307 307 308 308 309 311 313 314 315 315 317 317 316 317 318 317 316 316 315 315 315 315 315 315 315 315 314 313 312 312 310 306 300 295 292 289 286 284 281 278 276 273 272 271 270 270 270 271 272 272 272 270 266 264 260 249 242 243
286 278 274 271 274 273 264 271 274 264 277 291 295 285 277 268 271 283 287 288 286 284 287 292 294 297 302 304 304 305 306 306 306 308 309 310 311 312 313 313 312 313 314 314 312 310 311 313 314 314 314 313 312 312 312 311 310 310 310 308 304 301 298 293 290 287 284 282 279 275 272 269 266 266 267 268 269 269 269 268 265 260 252 244 242 243
295 289 279 270 275 276 267 260 264 272 284 292 289 280 278 278 283 289 290 286 283 282 287 291 293 299 304 303 303 304 303 303 304 305 306 307 309 310 311 311 311 310 310 310 311 310 310 312 314 314 314 313 311 309 309 308 307 306 306 305 304 302 301 298 295 292 290 287 284 280 277 273 269 265 262 263 264 265 265 265 264 260 253 247 245 245
304 301 291 281 281 288 287 278 274 278 286 289 287 284 285 288 291 292 291 289 289 289 290 291 293 298 301 302 303 303 303 303 303 302 303 305 307 311 312 311 310 309 309 311 312 311 311 312 313 314 314 313 312 310 307 304 302 301 301 302 301 301 299 297 296 295 294 292 290 286 282 279 274 269 264 261 260 261 261 262 263 262 258 255 254 254
313 311 300 292 288 290 292 291 291 291 285 280 281 285 289 290 291 292 291 289 289 289 290 290 290 293 297 301 301 301 302 302 301 301 303 306 309 311 312 312 312 311 312 313 313 311 310 311 312 312 312 311 311 310 308 305 301 297 295 296 298 298 296 294 295 296 296 295 292 291 288 284 280 274 269 265 263 262 261 262 262 261 259 257 257 259
304 308 304 301 295 288 287 286 287 287 285 283 281 281 283 283 284 290 292 287 285 288 288 289 291 295 299 301 300 300 300 299 300 303 307 310 312 312 311 311 312 312 312 312 311 310 309 309 309 308 308 308 309 308 306 304 302 298 294 292 293 294 291 290 291 294 294 294 293 292 290 287 284 279 274 270 267 265 264 263 261 260 259 256 256 258
299 305 300 299 300 299 298 293 285 285 295 303 293 277 272 276 281 288 291 287 287 290 290 290 293 296 300 300 298 298 299 299 302 305 307 309 310 309 309 310 310 309 308 306 306 305 304 304 305 304 304 305 307 307 305 303 302 301 297 292 290 289 288 287 288 290 291 291 291 292 292 289 286 283 279 276 272 270 268 266 263 261 259 257 254 253
308 307 299 299 303 301 294 285 283 285 294 299 283 268 273 285 288 289 290 290 292 294 294 293 293 295 298 299 298 300 301 302 303 305 305 306 307 307 307 307 307 306 304 302 301 299 298 298 299 300 299 300 304 306 305 302 303 304 299 293 289 285 284 285 287 289 290 289 288 288 288 288 287 285 283 279 277 275 273 270 268 265 262 259 254 251
308 304 298 295 294 290 276 273 281 289 290 282 269 266 277 286 288 289 292 295 297 297 296 295 293 295 298 300 301 304 305 305 306 306 305 305 306 306 305 304 304 304 303 303 302 301 299 299 298 297 297 299 304 308 306 303 304 305 300 295 290 285 283 283 284 286 287 288 288 286 283 283 284 285 284 282 279 277 275 273 271 267 264 261 256 252
Height
3134 3134 3134 3134 3134 3133 3132 3132 3131 3131 3130 3130 3131 3131 3131 3131 3130 3131 3132 3131 3132 3133 3133 3133 3133 3134 3134 3135 3135 3134 3134 3135 3135 3135 3136 3137 3138 3139 3139 3140 3141 3142 3142 3142 3143 3144 3145 3146 3147 3147 3147 3146 3146 3146 3146 3146 3146 3146 3146 3146 3146 3147 3147 3147 3146 3146 3146 3146 3146 3146 3146 3146 3146 3146 3146 3146 3145 3145 3144 3144 3143 3142 3141 3141 3141 3140
3134 3134 3135 3134 3133 3132 3132 3131 3130 3129 3129 3129 3129 3129 3129 3129 3129 3130 3130 3130 3130 3131 3131 3131 3132 3132 3133 3133 3133 3133 3133 3133 3133 3133 3134 3135 3136 3137 3138 3138 3139 3140 3140 3141 3142 3143 3144 3144 3145 3146 3146 3146 3146 3146 3146 3146 3146 3146 3146 3146 3146 3147 3147 3147 3147 3146 3146 3146 3146 3146 3146 3146 3146 3146 3146 3146 3146 3145 3145 3144 3143 3142 3142 3141 3141 3140
3134 3134 3134 3133 3132 3132 3131 3130 3129 3129 3129 3129 3129 3128 3128 3127 3127 3128 3129 3129 3129 3130 3130 3130 3131 3130 3131 3132 3131 3132 3132 3131 3132 3132 3132 3133 3134 3135 3136 3137 3137 3139 3139 3139 3140 3141 3142 3143 3144 3145 3145 3145 3145 3145 3145 3145 3145 3146 3146 3146 3146 3146 3147 3147 3147 3146 3146 3146 3146 3146 3146 3146 3146 3146 3146 3146 3145 3145 3145 3144 3143 3143 3142 3142 3141 3140
3134 3133 3133 3132 3132 3132 3131 3131 3130 3129 3129 3128 3128 3127 3126 3125 3126 3126 3127 3128 3128 3129 3128 3129 3129 3128 3129 3130 3130 3130 3130 3130 3130 3130 3130 3131 3132 3133 3134 3135 3136 3137 3137 3138 3139 3140 3141 3142 3143 3144 3144 3144 3144 3144 3145 3145 3145 3145 3145 3145 3146 3146 3146 3147 3147 3147 3146 3146 3146 3146 3146 3146 3145 3145 3145 3145 3145 3145 3144 3144 3143 3143 3142 3141 3141 3140
3133 3132 3132 3132 3132 3132 3132 3131 3130 3129 3128 3128 3128 3126 3125 3125 3126 3125 3126 3127 3127 3127 3127 3128 3127 3125 3127 3128 3128 3128 3129 3128 3128 3128 3128 3128 3128 3130 3131 3132 3133 3134 3135 3136 3137 3138 3139 3140 3141 3142 3143 3143 3144 3143 3144 3144 3144 3144 3144 3145 3145 3145 3146 3146 3147 3147 3146 3146 3146 3146 3146 3145 3145 3145 3145 3145 3144 3144 3144 3143 3143 3142 3142 3141 3141 3140
3133 3132 3131 3132 3132 3132 3131 3131 3130 3129 3128 3128 3127 3127 3126 3126 3126 3126 3126 3125 3125 3125 3125 3126 3124 3121 3124 3127 3127 3128 3128 3127 3127 3126 3126 3126 3126 3127 3128 3129 3131 3132 3133 3134 3135 3136 3137 3139 3139 3141 3141 3142 3143 3143 3143 3143 3143 3143 3143 3144 3144 3145 3145 3146 3146 3146 3146 3146 3146 3146 3145 3145 3145 3145 3144 3144 3144 3143 3143 3143 3142 3142 3141 3141 3140 3140
3132 3131 3131 3131 3131 3131 3131 3130 3129 3128 3128 3127 3125 3126 3126 3125 3126 3125 3125 3124 3123 3122 3123 3125 3123 3119 3122 3125 3125 3127 3127 3126 3125 3124 3124 3125 3125 3126 3126 3128 3129 3130 3131 3132 3133 3134 3135 3136 3137 3139 3140 3141 3141 3142 3142 3142 3142 3142 3142 3143 3143 3143 3144 3145 3145 3146 3146 3146 3146 3145 3145 3145 3144 3144 3144 3143 3143 3143 3142 3142 3142 3141 3141 3140 3140 3139
3132 3131 3131 3130 3130 3130 3130 3129 3128 3127 3127 3125 3124 3125 3125 3125 3125 3124 3124 3123 3122 3122 3123 3123 3123 3120 3121 3123 3124 3126 3126 3125 3124 3123 3123 3123 3124 3124 3125 3126 3127 3128 3129 3130 3131 3132 3132 3134 3135 3137 3138 3139 3139 3140 3140 3141 3141 3141 3141 3141 3142 3142 3143 3143 3144 3144 3145 3145 3145 3145 3145 3144 3144 3144 3143 3143 3143 3142 3142 3142 3141 3141 3140 3140 3139 3139
3131 3130 3130 3129 3130 3129 3129 3128 3127 3125 3126 3124 3123 3123 3123 3123 3123 3122 3123 3122 3121 3122 3121 3121 3122 3120 3119 3122 3123 3124 3124 3123 3122 3121 3121 3122 3122 3122 3123 3123 3124 3125 3126 3127 3128 3129 3130 3131 3133 3134 3135 3136 3137 3138 3139 3139 3140 3140 3140 3140 3140 3140 3141 3142 3142 3143 3143 3144 3144 3144 3144 3143 3143 3143 3143 3143 3142 3142 3141 3141 3141 3140 3140 3139 3139 3138
3130 3129 3129 3128 3129 3128 3128 3127 3125 3124 3124 3122 3121 3122 3122 3121 3121 3121 3120 3120 3120 3121 3119 3119 3120 3119 3118 3121 3123 3122 3122 3121 3121 3121 3121 3121 3121 3121 3121 3122 3122 3123 3123 3124 3125 3126 3127 3128 3130 3131 3133 3133 3135 3136 3137 3137 3138 3138 3139 3139 3139 3139 3139 3140 3140 3141 3142 3142 3143 3143 3143 3143 3143 3142 3142 3142 3142 3141 3141 3140 3140 3139 3139 3138 3138 3137
3130 3129 3128 3128 3128 3127 3126 3125 3124 3123 3122 3121 3120 3120 3119 3118 3118 3118 3118 3118 3118 3117 3117 3118 3120 3120 3118 3120 3122 3122 3122 3122 3121 3121 3120 3120 3120 3120 3120 3120 3121 3121 3121 3121 3122 3123 3124 3126 3127 3128 3129 3130 3132 3133 3134 3135 3136 3136 3137 3137 3137 3138 3138 3138 3139 3139 3140 3140 3141 3141 3141 3141 3141 3141 3141 3141 3141 3140 3140 3139 3139 3138 3138 3137 3137 3136
3130 3130 3129 3127 3126 3126 3125 3125 3123 3122 3120 3120 3119 3118 3118 3116 3117 3116 3115 3116 3114 3113 3115 3117 3119 3120 3119 3121 3124 3124 3123 3123 3122 3121 3120 3119 3119 3119 3119 3119 3119 3119 3119 3119 3119 3120 3122 3124 3124 3125 3126 3127 3128 3130 3131 3132 3133 3133 3134 3135 3135 3136 3136 3136 3137 3137 3138 3138 3139 3139 3140 3140 3140 3140 3140 3140 3140 3139 3139 3138 3137 3137 3136 3136 3135 3135
3130 3130 3129 3127 3126 3125 3124 3123 3123 3121 3120 3119 3118 3117 3116 3115 3117 3118 3116 3115 3112 3110 3114 3116 3117 3119 3120 3123 3125 3124 3123 3122 3122 3121 3120 3119 3118 3118 3118 3118 3118 3118 3118 3118 3117 3118 3120 3121 3122 3122 3123 3124 3125 3126 3127 3129 3130 3130 3131 3132 3133 3133 3134 3134 3135 3135 3136 3136 3137 3137 3137 3138 3138 3138 3138 3138 3138 3138 3137 3137 3136 3135 3135 3134 3134 3133
3130 3128 3128 3128 3126 3124 3123 3123 3122 3121 3120 3119 3118 3117 3115 3115 3117 3118 3116 3114 3110 3109 3113 3116 3117 3119 3121 3123 3124 3124 3123 3122 3121 3121 3120 3119 3118 3117 3117 3116 3117 3117 3116 3116 3116 3117 3118 3119 3119 3119 3119 3120 3121 3122 3124 3125 3126 3127 3128 3129 3130 3130 3131 3132 3132 3133 3133 3134 3134 3135 3135 3135 3136 3136 3136 3136 3136 3136 3136 3135 3135 3134 3133 3133 3132 3131
3131 3128 3127 3127 3127 3125 3124 3123 3121 3120 3120 3119 3119 3118 3117 3116 3116 3116 3116 3113 3108 3108 3113 3115 3116 3118 3119 3121 3122 3122 3122 3121 3121 3120 3119 3118 3117 3117 3116 3115 3115 3115 3115 3115 3115 3115 3116 3116 3117 3117 3117 3117 3118 3119 3120 3121 3123 3124 3124 3126 3127 3127 3128 3129 3129 3130 3131 3132 3132 3132 3132 3133 3133 3134 3134 3134 3134 3134 3134 3133 3133 3132 3132 3131 3130 3130
3131 3129 3127 3127 3126 3125 3124 3123 3121 3120 3119 3119 3119 3118 3117 3116 3116 3116 3116 3114 3111 3110 3111 3113 3116 3117 3118 3119 3120 3120 3120 3120 3119 3119 3118 3117 3116 3116 3116 3115 3114 3113 3113 3113 3113 3114 3114 3114 3115 3115 3115 3115 3116 3117 3117 3118 3119 3120 3121 3122 3123 3124 3125 3126 3126 3127 3128 3129 3129 3129 3129 3130 3130 3131 3131 3131 3132 3132 3132 3131 3131 3130 3130 3129 3129 3128
3131 3129 3128 3128 3127 3125 3123 3123 3122 3121 3120 3119 3119 3118 3117 3117 3118 3117 3114 3114 3114 3112 3112 3113 3115 3117 3118 3119 3119 3119 3119 3119 3118 3118 3117 3116 3115 3115 3114 3114 3113 3113 3112 3112 3112 3112 3112 3112 3112 3113 3113 3113 3114 3114 3115 3116 3117 3117 3118 3118 3119 3120 3121 3121 3122 3124 3125 3126 3126 3127 3127 3127 3127 3128 3128 3128 3129 3129 3129 3129 3129 3128 3128 3127 3127 3126
3132 3129 3128 3129 3128 3125 3123 3123 3122 3121 3120 3120 3119 3119 3118 3117 3117 3117 3114 3113 3111 3110 3112 3113 3113 3116 3118 3118 3118 3119 3118 3118 3118 3117 3117 3116 3115 3114 3113 3112 3112 3112 3112 3111 3111 3110 3110 3110 3110 3111 3111 3111 3111 3111 3112 3113 3114 3114 3115 3114 3114 3115 3116 3117 3120 3122 3123 3123 3123 3124 3124 3123 3124 3124 3125 3125 3126 3127 3127 3127 3127 3126 3126 3125 3125 3124
3131 3129 3127 3128 3128 3126 3125 3124 3123 3122 3120 3120 3120 3119 3119 3118 3117 3117 3116 3114 3111 3110 3111 3112 3113 3117 3119 3118 3119 3119 3118 3119 3118 3117 3116 3115 3114 3113 3112 3112 3111 3111 3110 3110 3109 3109 3109 3109 3109 3109 3109 3109 3109 3109 3109 3109 3109 3110 3111 3110 3109 3110 3112 3114 3117 3118 3119 3120 3121 3120 3120 3120 3120 3121 3121 3122 3123 3124 3124 3124 3124 3124 3123 3123 3122 3121
3132 3130 3127 3128 3128 3127 3126 3125 3124 3123 3121 3121 3121 3120 3120 3119 3118 3118 3117 3116 3113 3111 3111 3111 3113 3117 3119 3119 3120 3119 3118 3118 3118 3117 3116 3114 3113 3112 3111 3111 3111 3110 3109 3108 3108 3107 3107 3107 3107 3107 3106 3106 3106 3106 3106 3106 3106 3106 3106 3106 3106 3107 3108 3111 3113 3114 3115 3116 3117 3117 3117 3117 3117 3118 3118 3119 3120 3121 3121 3121 3121 3121 3121 3120 3119 3119
3132 3131 3128 3128 3128 3127 3127 3126 3124 3124 3123 3122 3122 3121 3121 3120 3119 3118 3117 3117 3115 3112 3112 3112 3113 3117 3120 3120 3120 3119 3118 3116 3116 3115 3114 3113 3112 3111 3110 3110 3109 3108 3107 3107 3106 3106 3105 3105 3105 3105 3104 3104 3103 3103 3103 3103 3103 3103 3102 3101 3102 3103 3104 3106 3108 3110 3111 3112 3113 3114 3114 3114 3114 3114 3115 3116 3117 3117 3118 3118 3118 3118 3118 3117 3117 3116
3131 3131 3130 3129 3129 3128 3128 3127 3125 3124 3124 3124 3123 3122 3122 3121 3120 3118 3116 3117 3117 3115 3115 3114 3114 3118 3120 3119 3119 3119 3117 3116 3115 3114 3113 3113 3112 3110 3110 3109 3108 3107 3106 3106 3105 3104 3103 3103 3103 3103 3102 3101 3101 3100 3100 3100 3100 3100 3099 3097 3097 3098 3099 3101 3103 3105 3107 3107 3108 3109 3110 3110 3110 3111 3111 3112 3113 3114 3115 3115 3115 3115 3115 3115 3114 3113
3131 3131 3130 3130 3129 3129 3128 3127 3126 3125 3124 3124 3124 3123 3122 3121 3121 3120 3117 3117 3118 3117 3117 3115 3115 3119 3120 3119 3120 3119 3117 3116 3114 3113 3112 3112 3111 3110 3109 3109 3108 3107 3106 3105 3104 3103 3102 3101 3101 3100 3100 3099 3099 3098 3098 3097 3097 3097 3096 3095 3094 3094 3095 3097 3098 3100 3102 3103 3103 3103 3104 3105 3106 3107 3108 3109 3110 3111 3111 3112 3112 3112 3113 3112 3111 3111
3131 3131 3130 3129 3129 3129 3128 3127 3126 3125 3125 3126 3125 3123 3123 3122 3121 3121 3119 3119 3119 3118 3117 3116 3116 3120 3120 3119 3119 3119 3117 3116 3114 3113 3112 3111 3111 3110 3109 3108 3107 3106 3105 3104 3103 3101 3100 3099 3099 3098 3098 3097 3096 3096 3095 3095 3095 3094 3092 3092 3092 3091 3092 3093 3093 3095 3097 3098 3098 3098 3098 3099 3101 3103 3104 3105 3106 3107 3108 3108 3109 3109 3110 3109 3109 3108
3131 3131 3130 3127 3125 3126 3126 3126 3126 3126 3127 3127 3126 3124 3123 3122 3121 3121 3120 3120 3119 3119 3118 3116 3117 3120 3120 3119 3119 3118 3117 3116 3115 3113 3112 3111 3110 3109 3108 3107 3106 3105 3104 3103 3102 3100 3099 3098 3097 3096 3096 3095 3094 3093 3093 3092 3092 3091 3089 3089 3089 3088 3088 3088 3088 3090 3092 3093 3093 3094 3094 3094 3096 3098 3100 3101 3103 3103 3104 3105 3106 3106 3106 3106 3106 3105
3131 3132 3130 3128 3125 3124 3125 3126 3126 3127 3128 3127 3126 3125 3124 3123 3122 3121 3121 3120 3119 3119 3120 3119 3119 3120 3120 3119 3119 3118 3116 3115 3114 3113 3112 3111 3110 3108 3108 3107 3105 3105 3103 3102 3101 3100 3098 3097 3095 3094 3094 3094 3093 3092 3091 3090 3089 3089 3088 3086 3086 3085 3085 3086 3086 3087 3088 3089 3091 3092 3091 3091 3093 3095 3097 3098 3099 3100 3100 3101 3102 3102 3102 3103 3103 3103
3131 3131 3131 3130 3129 3128 3128 3128 3128 3128 3128 3127 3127 3126 3124 3123 3122 3122 3121 3120 3119 3120 3120 3120 3120 3120 3120 3119 3118 3117 3116 3115 3114 3113 3112 3111 3110 3108 3107 3106 3105 3104 3103 3102 3101 3099 3098 3096 3094 3093 3092 3092 3092 3091 3090 3089 3088 3087 3086 3085 3085 3084 3084 3085 3085 3085 3086 3087 3088 3089 3090 3090 3091 3093 3094 3094 3096 3096 3096 3097 3099 3099 3099 3099 3100 3100
3132 3132 3130 3130 3131 3130 3129 3129 3128 3128 3128 3127 3127 3126 3125 3124 3123 3123 3122 3121 3120 3120 3120 3120 3120 3120 3120 3119 3118 3117 3115 3114 3114 3112 3111 3110 3109 3108 3107 3106 3105 3104 3102 3101 3100 3098 3097 3095 3094 3092 3091 3090 3089 3089 3089 3088 3087 3086 3085 3084 3083 3083 3083 3084 3084 3084 3084 3085 3085 3086 3087 3088 3088 3089 3090 3091 3091 3091 3091 3093 3094 3095 3095 3096 3096 3096
3131 3131 3130 3130 3130 3130 3129 3128 3128 3128 3127 3127 3126 3126 3126 3125 3124 3124 3123 3122 3122 3121 3120 3121 3121 3121 3120 3119 3118 3116 3114 3114 3113 3112 3111 3110 3109 3108 3107 3106 3104 3103 3101 3100 3099 3097 3096 3095 3093 3092 3090 3088 3087 3087 3086 3086 3085 3085 3084 3083 3082 3081 3081 3082 3082 3082 3082 3082 3083 3083 3084 3085 3085 3086 3086 3087 3087 3087 3087 3088 3090 3090 3091 3091 3091 3092
3131 3130 3129 3129 3130 3129 3129 3128 3128 3128 3127 3127 3126 3126 3125 3125 3125 3124 3123 3123 3122 3122 3122 3121 3121 3121 3120 3119 3117 3115 3114 3113 3113 3112 3111 3109 3108 3107 3106 3105 3104 3102 3101 3099 3098 3096 3095 3094 3092 3091 3090 3088 3086 3085 3084 3083 3083 3083 3082 3082 3081 3080 3080 3079 3079 3079 3079 3079 3080 3080 3081 3082 3082 3083 3083 3084 3083 3083 3084 3085 3085 3086 3086 3087 3087 3088
3130 3130 3129 3129 3129 3129 3128 3128 3128 3128 3128 3127 3126 3126 3125 3125 3125 3124 3124 3123 3123 3123 3122 3121 3121 3121 3120 3118 3117 3115 3113 3113 3112 3111 3110 3109 3107 3106 3105 3104 3102 3101 3100 3099 3097 3096 3094 3093 3092 3090 3089 3087 3085 3084 3083 3082 3081 3080 3079 3079 3078 3079 3078 3078 3077 3077 3078 3077 3076 3076 3078 3079 3079 3079 3080 3080 3080 3080 3080 3080 3081 3081 3081 3082 3083 3084
3130 3129 3128 3128 3129 3128 3128 3128 3128 3128 3127 3126 3126 3125 3125 3125 3124 3124 3123 3123 3122 3122 3122 3121 3121 3120 3119 3118 3116 3115 3113 3112 3111 3109 3108 3107 3106 3105 3104 3102 3101 3100 3099 3098 3096 3095 3094 3092 3091 3089 3088 3087 3085 3084 3082 3081 3080 3079 3078 3077 3076 3076 3076 3076 3076 3076 3076 3075 3073 3073 3075 3076 3077 3076 3076 3076 3077 3076 3076 3076 3076 3077 3077 3079 3080 3081
3129 3129 3129 3129 3128 3127 3128 3127 3127 3127 3126 3124 3124 3124 3124 3124 3124 3123 3123 3122 3121 3121 3121 3121 3120 3119 3118 3117 3116 3115 3113 3111 3109 3108 3107 3106 3105 3104 3102 3101 3099 3098 3097 3096 3095 3093 3092 3091 3089 3088 3087 3086 3084 3083 3082 3080 3079 3078 3077 3076 3076 3075 3074 3074 3074 3074 3074 3073 3071 3071 3073 3073 3073 3073 3073 3073 3073 3072 3072 3072 3073 3073 3074 3076 3077 3079
3129 3129 3129 3128 3127 3127 3127 3127 3127 3126 3123 3121 3122 3122 3122 3123 3123 3123 3122 3121 3120 3120 3119 3119 3119 3118 3117 3116 3115 3114 3112 3110 3108 3107 3106 3105 3104 3102 3101 3100 3098 3097 3096 3095 3093 3092 3090 3089 3088 3087 3085 3084 3083 3082 3081 3079 3078 3077 3076 3076 3075 3074 3073 3072 3072 3071 3071 3071 3070 3070 3070 3070 3071 3071 3070 3070 3069 3069 3068 3069 3070 3070 3071 3072 3074 3076
3128 3128 3128 3127 3127 3127 3126 3126 3126 3124 3121 3120 3121 3120 3120 3121 3121 3121 3120 3119 3119 3119 3118 3118 3118 3117 3116 3115 3114 3112 3110 3108 3107 3106 3105 3103 3102 3101 3099 3098 3097 3095 3094 3093 3091 3090 3089 3087 3086 3085 3084 3083 3082 3081 3080 3078 3077 3076 3075 3074 3074 3073 3072 3071 3070 3070 3069 3069 3068 3068 3068 3068 3068 3068 3067 3067 3066 3065 3065 3066 3066 3067 3068 3069 3071 3073
3128 3128 3127 3127 3127 3126 3125 3125 3124 3121 3119 3120 3119 3119 3119 3120 3120 3120 3119 3118 3117 3117 3117 3116 3116 3116 3115 3114 3112 3110 3109 3107 3106 3105 3104 3102 3101 3099 3098 3097 3095 3094 3092 3091 3090 3088 3087 3085 3084 3083 3082 3081 3080 3079 3078 3077 3076 3075 3074 3073 3072 3071 3070 3069 3069 3068 3067 3067 3066 3066 3065 3065 3065 3065 3064 3064 3063 3062 3062 3062 3063 3064 3066 3067 3069 3071
3127 3127 3127 3126 3126 3125 3124 3123 3121 3120 3119 3119 3118 3118 3118 3119 3119 3119 3119 3118 3116 3115 3115 3115 3115 3114 3113 3112 3111 3109 3108 3107 3106 3104 3103 3102 3100 3098 3097 3095 3094 3093 3091 3090 3088 3087 3085 3084 3082 3081 3080 3079 3078 3077 3076 3075 3074 3073 3072 3071 3071 3070 3069 3068 3067 3067 3066 3065 3065 3064 3064 3063 3062 3062 3062 3061 3060 3060 3060 3060 3061 3062 3064 3065 3067 3068
3125 3126 3126 3126 3125 3124 3124 3122 3119 3119 3118 3117 3118 3117 3117 3117 3117 3117 3117 3116 3115 3114 3113 3113 3113 3112 3111 3110 3109 3108 3107 3107 3107 3104 3102 3100 3099 3097 3096 3095 3093 3091 3090 3089 3087 3086 3084 3083 3081 3080 3078 3077 3076 3075 3074 3073 3073 3072 3070 3070 3069 3068 3067 3066 3065 3065 3064 3064 3063 3062 3062 3061 3060 3060 3060 3059 3058 3058 3059 3059 3059 3061 3062 3063 3064 3065
3124 3124 3124 3125 3124 3123 3123 3121 3119 3118 3117 3117 3116 3116 3115 3116 3116 3116 3115 3114 3112 3112 3112 3111 3111 3111 3110 3109 3108 3106 3106 3106 3105 3103 3101 3100 3098 3096 3095 3094 3092 3091 3089 3087 3086 3084 3083 3081 3080 3078 3077 3076 3074 3073 3072 3071 3071 3070 3069 3068 3066 3065 3065 3064 3063 3063 3062 3061 3061 3060 3060 3059 3059 3059 3058 3058 3057 3057 3058 3058 3058 3058 3059 3060 3061 3062
3123 3124 3124 3124 3124 3123 3122 3121 3119 3118 3117 3116 3115 3115 3115 3115 3116 3116 3114 3111 3110 3111 3111 3110 3109 3109 3108 3107 3106 3105 3105 3104 3103 3101 3100 3099 3097 3096 3094 3092 3091 3089 3088 3086 3084 3083 3081 3080 3078 3077 3075 3074 3073 3071 3070 3069 3068 3067 3066 3065 3064 3063 3062 3062 3061 3060 3059 3059 3058 3058 3057 3057 3057 3057 3056 3056 3056 3055 3055 3056 3056 3056 3057 3057 3057 3058
3124 3123 3123 3123 3122 3121 3121 3120 3119 3117 3115 3114 3114 3114 3114 3114 3115 3114 3112 3110 3110 3110 3109 3108 3108 3107 3106 3106 3105 3104 3103 3102 3101 3100 3099 3097 3096 3095 3093 3091 3090 3088 3086 3084 3083 3081 3080 3078 3076 3075 3073 3072 3071 3069 3068 3067 3066 3065 3064 3063 3062 3061 3060 3059 3059 3058 3057 3056 3056 3055 3055 3054 3054 3054 3053 3053 3053 3053 3053 3053 3053 3053 3053 3054 3053 3054
3123 3122 3121 3121 3121 3120 3119 3119 3118 3116 3113 3112 3113 3112 3113 3114 3114 3112 3110 3110 3109 3108 3108 3107 3106 3105 3105 3104 3103 3103 3102 3100 3099 3098 3097 3095 3094 3093 3091 3090 3088 3087 3085 3083 3081 3079 3078 3076 3075 3073 3072 3070 3069 3067 3066 3065 3064 3063 3062 3060 3059 3058 3057 3057 3056 3055 3055 3054 3053 3052 3052 3052 3051 3051 3050 3050 3050 3050 3050 3050 3050 3049 3049 3049 3050 3051
3122 3121 3121 3120 3119 3119 3118 3118 3116 3114 3112 3111 3112 3112 3112 3113 3112 3110 3109 3109 3108 3107 3106 3106 3105 3104 3103 3102 3102 3101 3100 3099 3098 3097 3095 3094 3092 3090 3089 3088 3086 3085 3083 3082 3080 3078 3076 3074 3073 3071 3070 3068 3066 3065 3064 3063 3061 3060 3059 3058 3057 3055 3054 3053 3053 3052 3051 3051 3050 3050 3049 3048 3048 3047 3047 3047 3047 3047 3046 3046 3046 3046 3046 3046 3047 3048
3120 3120 3120 3119 3118 3117 3117 3117 3115 3112 3110 3110 3111 3111 3111 3110 3109 3108 3108 3108 3107 3106 3105 3104 3103 3102 3101 3101 3100 3100 3098 3097 3096 3095 3093 3092 3090 3089 3087 3086 3084 3082 3081 3079 3078 3076 3074 3072 3071 3069 3068 3066 3064 3063 3061 3060 3059 3057 3056 3055 3054 3053 3052 3050 3049 3049 3048 3047 3047 3046 3045 3045 3045 3044 3044 3043 3043 3043 3043 3043 3042 3042 3043 3043 3044 3044
3119 3118 3118 3117 3116 3115 3115 3114 3113 3110 3109 3108 3108 3109 3109 3108 3107 3106 3106 3106 3105 3104 3103 3102 3101 3101 3100 3099 3098 3098 3097 3095 3094 3093 3091 3090 3088 3087 3085 3084 3082 3080 3079 3077 3075 3073 3071 3070 3068 3067 3065 3064 3062 3060 3059 3057 3056 3054 3053 3052 3051 3050 3049 3047 3046 3045 3044 3044 3043 3042 3042 3041 3041 3041 3041 3040 3039 3039 3039 3039 3038 3038 3039 3040 3040 3040
3116 3115 3115 3115 3114 3112 3111 3111 3110 3109 3108 3107 3106 3106 3106 3105 3105 3105 3104 3104 3103 3102 3101 3101 3100 3099 3098 3097 3096 3095 3094 3093 3092 3091 3089 3088 3086 3085 3083 3081 3080 3078 3076 3074 3072 3070 3069 3067 3065 3063 3062 3061 3059 3058 3056 3055 3053 3051 3050 3049 3048 3047 3046 3044 3043 3042 3041 3040 3039 3038 3038 3037 3037 3037 3037 3036 3036 3035 3035 3035 3035 3035 3036 3036 3036 3036
3114 3114 3113 3112 3112 3111 3109 3108 3108 3107 3107 3106 3105 3104 3104 3103 3103 3102 3102 3102 3101 3101 3100 3099 3098 3097 3096 3095 3094 3093 3092 3091 3090 3088 3087 3086 3084 3082 3080 3079 3077 3076 3074 3072 3070 3068 3066 3064 3062 3060 3058 3057 3056 3054 3053 3051 3050 3048 3047 3046 3045 3044 3042 3041 3040 3039 3038 3037 3036 3035 3034 3033 3033 3033 3032 3032 3032 3031 3031 3031 3031 3031 3031 3032 3032 3032
3113 3112 3111 3110 3110 3109 3108 3107 3106 3105 3104 3104 3103 3103 3103 3103 3102 3100 3100 3100 3099 3099 3098 3097 3096 3095 3094 3093 3092 3091 3090 3089 3088 3086 3085 3083 3081 3080 3078 3076 3075 3073 3071 3069 3067 3065 3063 3061 3059 3057 3055 3053 3051 3050 3049 3047 3046 3044 3043 3042 3042 3041 3039 3038 3037 3035 3034 3033 3032 3031 3030 3029 3029 3028 3028 3028 3027 3027 3027 3027 3027 3026 3026 3027 3028 3028
3111 3110 3109 3109 3108 3107 3107 3106 3105 3103 3103 3103 3102 3102 3101 3101 3100 3099 3099 3098 3097 3097 3096 3095 3094 3093 3092 3091 3090 3089 3088 3087 3086 3084 3082 3081 3079 3077 3076 3074 3072 3070 3068 3067 3065 3063 3061 3059 3056 3053 3051 3050 3047 3045 3044 3043 3041 3040 3039 3038 3038 3037 3036 3034 3033 3032 3031 3030 3029 3028 3027 3026 3025 3024 3024 3023 3023 3023 3022 3022 3022 3022 3021 3022 3023 3023
3109 3109 3108 3107 3106 3106 3106 3105 3103 3103 3103 3103 3102 3101 3099 3098 3098 3098 3097 3096 3095 3095 3094 3093 3092 3091 3090 3089 3088 3087 3086 3085 3084 3082 3080 3079 3077 3075 3073 3071 3069 3067 3065 3063 3061 3059 3057 3055 3053 3050 3048 3046 3044 3041 3039 3038 3037 3036 3034 3033 3033 3033 3032 3030 3029 3028 3027 3026 3026 3025 3023 3022 3021 3020 3019 3019 3018 3018 3018 3017 3018 3018 3017 3017 3018 3019
3108 3107 3106 3106 3105 3105 3104 3103 3101 3101 3101 3101 3100 3099 3098 3097 3096 3096 3096 3095 3094 3093 3092 3091 3090 3089 3088 3087 3086 3085 3083 3082 3081 3079 3077 3076 3074 3072 3070 3067 3065 3062 3060 3058 3056 3054 3052 3050 3048 3046 3044 3042 3040 3038 3035 3034 3034 3032 3030 3029 3028 3028 3027 3026 3025 3025 3024 3023 3022 3021 3020 3019 3018 3016 3015 3014 3014 3013 3013 3012 3012 3012 3012 3012 3013 3013